Location: Ennis
(34.0095°N, 117.4295°W)
Time: 23:04:13
(UTC+00:00)

Daily predictions for brighter satellites

Satellite Brightness Start Highest point End
(mag) Time Altitude Azimuth Time Altitude Azimuth Time Altitude Azimuth
Cosmos 1805 Rocket 4.2 12:01:01 10° S 12:05:15 57° E 12:09:34 10° NNE
CZ-3B R/B 4.2 12:06:04 10° N 12:07:42 16° NE 12:09:13 10° E
PSLV R/B 3.6 12:05:16 10° N 12:09:36 75° WNW 12:13:57 10° SSW
Cosmos 1484 Rocket 2.8 12:06:21 10° NNE 12:10:03 77° ESE 12:13:45 10° S
BREEZE-M DEB (TANK) 3.1 12:08:28 10° WSW 12:12:37 50° NNW 12:15:22 10° NE
